Time,TemperatureF,DewpointF,PressureIn,WindDirection,WindDirectionDegrees,WindSpeedMPH,WindSpeedGustMPH,Humidity,HourlyPrecipIn,Conditions,Clouds,dailyrainin,SoftwareType,DateUTC
2013-09-24 00:13:00,58.0,-99.9,-100.00,NW,326,1.0,1.0,-999,-99.99,,,-99.99,,2013-09-24 06:13:00,
2013-09-24 00:22:00,58.0,-99.9,-100.00,NW,326,1.0,1.0,-999,-99.99,,,-99.99,,2013-09-24 06:22:00,
2013-09-24 01:40:00,56.0,-99.9,-100.00,NW,310,1.0,1.0,-999,-99.99,,,-99.99,,2013-09-24 07:40:00,
2013-09-24 01:52:00,58.0,-99.9,-100.00,NW,318,1.0,1.0,-999,-99.99,,,-99.99,,2013-09-24 07:52:00,
2013-09-24 02:02:00,58.0,-99.9,-100.00,NW,318,1.0,1.0,-999,-99.99,,,-99.99,,2013-09-24 08:02:00,
2013-09-24 02:11:00,58.0,-99.9,-100.00,NW,318,1.0,1.0,-999,-99.99,,,-99.99,,2013-09-24 08:11:00,
2013-09-24 02:23:00,56.0,-99.9,-100.00,NW,310,1.0,1.0,-999,-99.99,,,-99.99,,2013-09-24 08:23:00,
2013-09-24 02:32:00,56.0,-99.9,-100.00,NW,310,1.0,1.0,-999,-99.99,,,-99.99,,2013-09-24 08:32:00,
2013-09-24 03:43:00,58.0,-99.9,-100.00,NW,306,1.0,2.0,-999,-99.99,,,-99.99,,2013-09-24 09:43:00,
2013-09-24 03:54:00,58.0,-99.9,-100.00,NW,306,1.0,2.0,-999,-99.99,,,-99.99,,2013-09-24 09:54:00,
2013-09-24 05:20:00,50.0,-99.9,-100.00,East,89,3.0,4.0,-999,-99.99,,,-99.99,,2013-09-24 11:20:00,
2013-09-24 06:12:00,50.0,-99.9,-100.00,East,89,3.0,4.0,-999,-99.99,,,-99.99,,2013-09-24 12:12:00,
2013-09-24 08:12:00,55.0,-99.9,-100.00,West,272,1.0,4.0,-999,-99.99,,,-99.99,,2013-09-24 14:12:00,
2013-09-24 08:42:00,58.0,-99.9,-100.00,WNW,302,2.0,4.0,-999,-99.99,,,-99.99,,2013-09-24 14:42:00,
2013-09-24 08:50:00,62.0,-99.9,-100.00,WNW,284,4.0,4.0,-999,-99.99,,,-99.99,,2013-09-24 14:50:00,
2013-09-24 08:52:00,58.0,-99.9,-100.00,WNW,302,2.0,4.0,-999,-99.99,,,-99.99,,2013-09-24 14:52:00,
2013-09-24 09:43:00,62.0,-99.9,-100.00,WNW,284,4.0,4.0,-999,-99.99,,,-99.99,,2013-09-24 15:43:00,
2013-09-24 10:10:00,67.0,-99.9,-100.00,NW,309,2.0,4.0,-999,-99.99,,,-99.99,,2013-09-24 16:10:00,
2013-09-24 10:13:00,62.0,-99.9,-100.00,WNW,299,3.0,4.0,-999,-99.99,,,-99.99,,2013-09-24 16:13:00,
2013-09-24 10:43:00,65.0,-99.9,-100.00,WNW,292,3.0,4.0,-999,-99.99,,,-99.99,,2013-09-24 16:43:00,
2013-09-24 10:53:00,67.0,-99.9,-100.00,NW,309,2.0,4.0,-999,-99.99,,,-99.99,,2013-09-24 16:53:00,
2013-09-24 11:03:00,67.0,-99.9,-100.00,NW,309,2.0,4.0,-999,-99.99,,,-99.99,,2013-09-24 17:03:00,
2013-09-24 12:13:00,72.0,-99.9,-100.00,North,351,1.0,3.0,-999,-99.99,,,-99.99,,2013-09-24 18:13:00,
2013-09-24 13:42:00,76.0,-99.9,-100.00,ENE,77,2.0,3.0,-999,-99.99,,,-99.99,,2013-09-24 19:42:00,
2013-09-24 13:52:00,76.0,-99.9,-100.00,ENE,77,2.0,3.0,-999,-99.99,,,-99.99,,2013-09-24 19:52:00,
2013-09-24 15:12:00,79.0,-99.9,-100.00,South,169,0.0,2.0,-999,-99.99,,,-99.99,,2013-09-24 21:12:00,
2013-09-24 15:22:00,79.0,-99.9,-100.00,South,169,0.0,2.0,-999,-99.99,,,-99.99,,2013-09-24 21:22:00,
2013-09-24 15:50:00,79.0,-99.9,-100.00,NW,309,1.0,3.0,-999,-99.99,,,-99.99,,2013-09-24 21:50:00,
2013-09-24 16:24:00,81.0,-99.9,-100.00,SE,145,0.0,1.0,-999,-99.99,,,-99.99,,2013-09-24 22:24:00,
2013-09-24 16:43:00,79.0,-99.9,-100.00,NW,309,1.0,3.0,-999,-99.99,,,-99.99,,2013-09-24 22:43:00,
2013-09-24 19:42:00,75.0,-99.9,-100.00,North,353,0.0,1.0,-999,-99.99,,,-99.99,,2013-09-25 01:42:00,
2013-09-24 19:52:00,73.0,-99.9,-100.00,WNW,290,0.0,2.0,-999,-99.99,,,-99.99,,2013-09-25 01:52:00,
2013-09-24 20:02:00,73.0,-99.9,-100.00,WNW,290,0.0,2.0,-999,-99.99,,,-99.99,,2013-09-25 02:02:00,
2013-09-24 21:30:00,66.0,-99.9,-100.00,East,101,2.0,3.0,-999,-99.99,,,-99.99,,2013-09-25 03:30:00,
2013-09-24 22:14:00,66.0,-99.9,-100.00,East,101,2.0,3.0,-999,-99.99,,,-99.99,,2013-09-25 04:14:00,
2013-09-24 22:24:00,66.0,-99.9,-100.00,East,101,2.0,3.0,-999,-99.99,,,-99.99,,2013-09-25 04:24:00,
2013-09-24 22:54:00,65.0,-99.9,-100.00,NW,309,0.0,0.0,-999,-99.99,,,-99.99,,2013-09-25 04:54:00,
2013-09-24 23:13:00,65.0,-99.9,-100.00,NNE,26,0.0,1.0,-999,-99.99,,,-99.99,,2013-09-25 05:13:00,
2013-09-24 23:23:00,63.0,-99.9,-100.00,East,96,0.0,2.0,-999,-99.99,,,-99.99,,2013-09-25 05:23:00,
2013-09-24 23:34:00,63.0,-99.9,-100.00,East,96,0.0,2.0,-999,-99.99,,,-99.99,,2013-09-25 05:34:00,